Location: Newark
(5.8900°S, 42.6378°W)
Time: 18:26:21
(UTC+00:00)

XW-2D - Pass Details

Date: 24 October 2019
Orbit: 507 x 528 km, 97.5° (Epoch: 22 November)

Event Time Altitude Azimuth Distance (km) Brightness Sun altitude
Rises 21:05:12 0° 192° (SSW) 2,665 ? -6.2°
Reaches altitude 10° 21:07:42 10° 208° (SSW) 1,769 ? -6.8°
Maximum altitude 21:10:35 21° 257° (WSW) 1,224 ? -7.5°
Drops below altitude 10° 21:13:27 10° 307° (NW) 1,751 ? -8.2°
Sets 21:15:55 0° 324° (NW) 2,630 ? -8.8°
